[[{"header":{"parameterUnit":"m.s-1","parameterCategory":1,"la1":30.2991,"la2":30.254,"lo1":-89.0895,"lo2":-89.0444,"dy":0.0017,"dx":0.0017,"nx":28,"ny":28,"refTime":"2024-11-28T03:00:00:Z","depth":0,"parameterNumber":2,"parameterNumberName":"U-component_of_WINDS"},"data":[0,0,0,0,0,0,0,0,0,0,0,0,0,0,0,0,0,0,0,0,0,0,0,0,0,0,0,0,0,0,0,0,0,0,0,0,0,0,0,0,0,0,0,0,0,0,0,0,0,0,0,0,0,0,0,0,0,0,-0.2648,-0.2649,0,-0.271,-0.271,-0.2711,-0.2709,-0.2708,-0.2707,-0.2706,-0.2771,-0.2773,-0.2776,0,0,0,0,0,0,0,0,0,0,0,0,0,-0.2531,-0.2533,-0.2648,-0.2649,-0.265,-0.2709,-0.271,-0.2711,-0.2709,-0.2708,-0.2707,-0.2706,-0.277,-0.2773,-0.2776,0,0,0,0,0,0,0,0,0,0,0,0,0,-0.2586,-0.2534,-0.2648,-0.2656,-0.2657,-0.2709,-0.271,-0.2711,-0.2709,-0.2708,-0.2707,-0.2706,-0.2769,-0.2773,-0.2777,-0.2825,0,0,-0.2788,-0.279,0,0,0,0,0,0,0,0,-0.2583,-0.259,-0.2654,-0.2656,-0.2657,-0.27,-0.2692,-0.275,-0.271,-0.269,-0.2706,-0.2705,-0.2749,-0.2754,-0.2768,-0.2828,-0.2831,-0.2788,-0.2791,-0.2792,-0.2793,0,0,0,0,0,0,0,-0.2579,-0.2588,-0.2673,-0.2655,-0.2657,-0.2657,-0.2663,-0.2703,-0.2726,-0.2691,-0.2691,-0.2698,-0.2749,-0.2765,-0.277,-0.2832,-0.2788,-0.2792,-0.2794,-0.2795,-0.2935,-0.2936,0,0,0,0,0,0,-0.2573,-0.2584,-0.2671,-0.2674,-0.2616,-0.266,-0.2667,-0.2688,-0.2725,-0.273,-0.2699,-0.2698,-0.2759,-0.2765,-0.2772,-0.2832,-0.2792,-0.2796,-0.2798,-0.2933,-0.2935,-0.2937,0,0,0,0,0,0,-0.2571,-0.2581,-0.2668,-0.2629,-0.2641,-0.2663,-0.2687,-0.269,-0.2705,-0.2731,-0.2735,-0.2711,-0.2758,-0.2767,-0.2812,-0.2834,-0.2797,-0.2801,-0.2932,-0.2934,-0.2936,-0.2952,0,0,0,0,0,0,-0.2567,-0.258,-0.2599,-0.263,-0.2643,-0.2707,-0.2688,-0.2692,-0.2711,-0.271,-0.2743,-0.2748,-0.2758,-0.2806,-0.2816,-0.2839,-0.2804,-0.293,-0.2933,-0.2935,-0.295,-0.2954,-0.2959,0,0,0,0,0,-0.2563,-0.2601,-0.26,-0.261,-0.2666,-0.2708,-0.2716,-0.2726,-0.2713,-0.2732,-0.2749,-0.2747,-0.283,-0.2811,-0.2821,-0.2846,-0.2929,-0.2932,-0.2935,-0.2948,-0.2953,-0.2958,0,0,0,0,0,0,-0.2573,-0.2606,-0.2604,-0.2654,-0.2678,-0.2708,-0.2732,-0.2732,-0.2761,-0.2759,-0.2771,-0.2778,-0.2824,-0.2839,-0.2817,-0.2895,-0.2878,-0.2883,-0.2884,-0.2889,-0.2894,-0.289,-0.2807,0,0,0,0,0,-0.2581,-0.2612,-0.2639,-0.2679,-0.2692,-0.271,-0.2728,-0.2734,-0.276,-0.2771,-0.2791,-0.2817,-0.2849,-0.287,-0.29,-0.2951,-0.2959,-0.2973,-0.2977,-0.2981,-0.2986,-0.3014,-0.3021,-0.2947,-0.2947,-0.2947,0,0,-0.2598,-0.2619,-0.2638,-0.2682,-0.2702,-0.2734,-0.2719,-0.2753,-0.2777,-0.2776,-0.282,-0.2835,-0.2865,-0.2913,-0.2935,-0.2928,-0.3008,-0.2985,-0.2988,-0.2991,-0.3018,-0.3025,-0.3031,-0.295,-0.2949,-0.2949,0,0,-0.2645,-0.2664,-0.27,-0.272,-0.275,-0.2761,-0.277,-0.2799,-0.2809,-0.2853,-0.2853,-0.2881,-0.2936,-0.2957,-0.2975,-0.3029,-0.3028,-0.3038,-0.3062,-0.3089,-0.3095,-0.31,-0.312,-0.3127,-0.3043,-0.3043,-0.3043,0,-0.2663,-0.2711,-0.2719,-0.2754,-0.2773,-0.2772,-0.2809,-0.2828,-0.2866,-0.288,-0.287,-0.2938,-0.2958,-0.3011,-0.3024,-0.3038,-0.3049,-0.3035,-0.3094,-0.3099,-0.3104,-0.3123,-0.313,-0.3044,-0.3044,-0.3044,-0.3044,0,-0.2731,-0.2764,-0.279,-0.2826,-0.2848,-0.2884,-0.2898,-0.2919,-0.2922,-0.2935,-0.2979,-0.3003,-0.3038,-0.3051,-0.3055,-0.3104,-0.3098,-0.3091,-0.3074,-0.3112,-0.313,-0.3137,-0.3046,-0.3045,-0.3045,-0.3045,0,0,-0.2789,-0.2828,-0.2837,-0.2854,-0.2885,-0.2911,-0.2946,-0.298,-0.2999,-0.3024,-0.3055,-0.31,-0.3093,-0.3113,-0.3119,-0.3143,-0.3184,-0.3132,-0.3133,-0.3142,-0.3241,-0.3247,-0.3256,-0.3183,-0.3184,-0.3185,-0.3239,0,-0.284,-0.2903,-0.291,-0.2966,-0.2997,-0.2996,-0.3026,-0.3049,-0.3061,-0.3089,-0.3103,-0.3135,-0.3123,-0.3135,-0.3158,-0.3174,-0.3204,-0.317,-0.3212,-0.3213,-0.3206,-0.3265,-0.3272,-0.3322,-0.3246,-0.3247,-0.3248,0,-0.2909,-0.2936,-0.2995,-0.3021,-0.3035,-0.3062,-0.3094,-0.312,-0.3146,-0.3153,-0.3175,-0.3177,-0.3214,-0.3194,-0.3245,-0.3221,-0.3238,-0.3248,-0.3251,-0.3256,-0.3234,-0.3273,-0.3338,-0.3345,-0.3259,-0.3258,-0.3257,0,-0.2946,-0.2997,-0.3039,-0.3052,-0.3085,-0.3104,-0.3118,-0.3143,-0.3162,-0.3189,-0.3202,-0.3234,-0.3251,-0.3275,-0.3286,-0.327,-0.3336,-0.3317,-0.3344,-0.3344,-0.336,-0.3359,-0.3429,-0.3368,-0.3368,-0.3368,-0.3368,0,-0.3004,-0.304,-0.3056,-0.3082,-0.3122,-0.313,-0.317,-0.3183,-0.3205,-0.3233,-0.3233,-0.326,-0.3272,-0.3301,-0.3309,-0.335,-0.3358,-0.3365,-0.3368,-0.3366,-0.3365,-0.3379,-0.3376,-0.337,-0.337,-0.3369,-0.3369,0,-0.3053,-0.3065,-0.311,-0.3137,-0.3144,-0.3172,-0.3195,-0.322,-0.3231,-0.3267,-0.3276,-0.3294,-0.3327,-0.334,-0.3381,-0.3386,-0.3434,-0.3433,-0.3426,-0.3427,-0.3453,-0.3451,-0.3535,-0.3547,-0.3477,-0.3478,-0.3479,0,-0.309,-0.3118,-0.3146,-0.3165,-0.318,-0.321,-0.323,-0.3238,-0.3259,-0.3289,-0.3311,-0.3344,-0.3371,-0.3425,-0.3442,-0.3473,-0.3473,-0.35,-0.3478,-0.3476,-0.3475,-0.3474,-0.3477,-0.3505,-0.3506,-0.3507,-0.3507,0,-0.3154,-0.3158,-0.3187,-0.3217,-0.324,-0.3264,-0.3288,-0.3303,-0.3315,-0.3338,-0.3372,-0.3393,-0.3434,-0.3467,-0.3499,-0.3514,-0.3513,-0.3513,-0.3522,-0.3521,-0.3516,-0.352,-0.3438,-0.3512,-0.3512,-0.3511,-0.3511,-0.3511,-0.3199,-0.3224,-0.3248,-0.3279,-0.3297,-0.3319,-0.3343,-0.3357,-0.3385,-0.3419,-0.3422,-0.3459,-0.3483,-0.3525,-0.3541,-0.357,-0.3563,-0.3574,-0.3578,-0.3581,-0.3583,-0.351,-0.3576,-0.3576,-0.3576,-0.3575,-0.3575,0,-0.3265,-0.3279,-0.3308,-0.334,-0.3365,-0.336,-0.3385,-0.3406,-0.3438,-0.346,-0.3486,-0.3525,-0.3557,-0.3575,-0.3607,-0.3627,-0.3627,-0.3635,-0.3634,-0.3638,-0.3587,-0.3578,-0.3634,-0.3634,-0.3634,-0.3634,-0.3634,-0.3634,-0.3302,-0.3343,-0.3349,-0.3399,-0.3414,-0.3449,-0.3464,-0.3484,-0.3502,-0.3545,-0.3571,-0.3582,-0.3603,-0.3636,-0.3665,-0.3669,-0.3682,-0.369,-0.3694,-0.3647,-0.3641,-0.3636,-0.3627,-0.3693,-0.3693,-0.3743,-0.3743,-0.3744]},{"header":{"parameterUnit":"m.s-1","parameterCategory":1,"la1":30.2991,"la2":30.254,"lo1":-89.0895,"lo2":-89.0444,"dy":0.0017,"dx":0.0017,"nx":28,"ny":28,"refTime":"2024-11-28T03:00:00:Z","depth":0,"parameterNumber":3,"parameterNumberName":"V-component_of_WINDS"},"data":[0,0,0,0,0,0,0,0,0,0,0,0,0,0,0,0,0,0,0,0,0,0,0,0,0,0,0,0,0,0,0,0,0,0,0,0,0,0,0,0,0,0,0,0,0,0,0,0,0,0,0,0,0,0,0,0,0,0,-6.6296,-6.6297,0,-6.6421,-6.6423,-6.6424,-6.6358,-6.6355,-6.6351,-6.6348,-6.6471,-6.6477,-6.6484,0,0,0,0,0,0,0,0,0,0,0,0,0,-6.5996,-6.6001,-6.6296,-6.6298,-6.6299,-6.6421,-6.6423,-6.6424,-6.6359,-6.6355,-6.6351,-6.6347,-6.6469,-6.6476,-6.6484,0,0,0,0,0,0,0,0,0,0,0,0,0,-6.6124,-6.6003,-6.6296,-6.6281,-6.6281,-6.6421,-6.6423,-6.6425,-6.636,-6.6355,-6.635,-6.6345,-6.6466,-6.6476,-6.6485,-6.6644,0,0,-6.6514,-6.6519,0,0,0,0,0,0,0,0,-6.6117,-6.6135,-6.6282,-6.6283,-6.6283,-6.6369,-6.6362,-6.6498,-6.6361,-6.633,-6.6348,-6.6342,-6.6441,-6.6452,-6.6486,-6.665,-6.6655,-6.6515,-6.6521,-6.6525,-6.6528,0,0,0,0,0,0,0,-6.6108,-6.6129,-6.6345,-6.6284,-6.6285,-6.6267,-6.628,-6.6387,-6.6412,-6.6332,-6.6328,-6.6344,-6.644,-6.6477,-6.6489,-6.6657,-6.6515,-6.6523,-6.6529,-6.6533,-6.6958,-6.6963,0,0,0,0,0,0,-6.61,-6.6122,-6.6341,-6.6349,-6.6186,-6.6276,-6.6291,-6.6346,-6.641,-6.6415,-6.6348,-6.634,-6.6463,-6.6478,-6.6493,-6.6684,-6.6525,-6.6534,-6.654,-6.6952,-6.6959,-6.6965,0,0,0,0,0,0,-6.6094,-6.6121,-6.6336,-6.6235,-6.6261,-6.6287,-6.635,-6.6351,-6.6389,-6.6422,-6.6426,-6.6382,-6.646,-6.6479,-6.6608,-6.6687,-6.6538,-6.6547,-6.6946,-6.6954,-6.6962,-6.7067,0,0,0,0,0,0,-6.6086,-6.6119,-6.6181,-6.6237,-6.6266,-6.6451,-6.6355,-6.6357,-6.6406,-6.6397,-6.6455,-6.646,-6.6458,-6.6594,-6.6617,-6.6698,-6.6554,-6.6939,-6.6949,-6.6959,-6.7057,-6.7078,-6.7096,0,0,0,0,0,-6.6075,-6.6204,-6.6184,-6.6211,-6.6345,-6.6456,-6.6472,-6.6469,-6.6413,-6.6474,-6.6496,-6.6458,-6.6675,-6.6607,-6.6633,-6.6718,-6.6934,-6.6946,-6.6958,-6.7048,-6.7074,-6.7096,0,0,0,0,0,0,-6.6155,-6.6211,-6.619,-6.634,-6.6394,-6.6444,-6.6522,-6.6497,-6.6566,-6.6554,-6.6545,-6.6559,-6.6692,-6.6717,-6.6642,-6.6875,-6.6795,-6.6813,-6.6854,-6.6879,-6.6899,-6.689,-6.6562,0,0,0,0,0,-6.619,-6.6277,-6.6321,-6.645,-6.6478,-6.6496,-6.6544,-6.6537,-6.6591,-6.6613,-6.6643,-6.6696,-6.6776,-6.6829,-6.6904,-6.706,-6.7071,-6.7131,-6.715,-6.7166,-6.7182,-6.7267,-6.7294,-6.7006,-6.7006,-6.7005,0,0,-6.6263,-6.6305,-6.636,-6.6467,-6.6507,-6.6597,-6.6515,-6.6612,-6.6678,-6.6627,-6.6751,-6.6775,-6.6833,-6.6976,-6.704,-6.7001,-6.7264,-6.7182,-6.7195,-6.7202,-6.7282,-6.7309,-6.7334,-6.7014,-6.7013,-6.7011,0,0,-6.6443,-6.6483,-6.6595,-6.6638,-6.6702,-6.6713,-6.674,-6.6795,-6.681,-6.6934,-6.6898,-6.6974,-6.7112,-6.7155,-6.7195,-6.7392,-6.736,-6.7417,-6.752,-6.7603,-6.7625,-6.7645,-6.7716,-6.7741,-6.7432,-6.7433,-6.7433,0,-6.6526,-6.666,-6.6656,-6.6757,-6.6805,-6.6765,-6.6877,-6.6918,-6.7002,-6.7036,-6.6991,-6.7164,-6.72,-6.7353,-6.7401,-6.7434,-6.7464,-6.741,-6.7623,-6.7643,-6.7661,-6.7728,-6.7755,-6.7439,-6.7438,-6.7438,-6.7437,0,-6.6759,-6.6853,-6.6935,-6.702,-6.7077,-6.7184,-6.7194,-6.7252,-6.724,-6.7255,-6.7382,-6.7424,-6.7508,-6.7543,-6.7531,-6.7695,-6.7668,-6.7624,-6.7543,-6.7696,-6.7758,-6.7784,-6.7449,-6.7446,-6.7444,-6.7443,0,0,-6.6991,-6.7074,-6.7104,-6.7142,-6.721,-6.7281,-6.7385,-6.7469,-6.7519,-6.7578,-6.7665,-6.7783,-6.7742,-6.7788,-6.778,-6.7853,-6.8006,-6.7799,-6.78,-6.7836,-6.8188,-6.8222,-6.8252,-6.7985,-6.799,-6.7994,-6.8184,0,-6.7176,-6.7361,-6.736,-6.753,-6.7617,-6.758,-6.767,-6.7721,-6.7738,-6.7812,-6.783,-6.7915,-6.7854,-6.7882,-6.7952,-6.7973,-6.8077,-6.7959,-6.8064,-6.8068,-6.8052,-6.8285,-6.8321,-6.8498,-6.8208,-6.8212,-6.8215,0,-6.7416,-6.7486,-6.7665,-6.7721,-6.7757,-6.7839,-6.7916,-6.7988,-6.8044,-6.8051,-6.8103,-6.8084,-6.8189,-6.8105,-6.8249,-6.8169,-6.8211,-6.8228,-6.8235,-6.8245,-6.8151,-6.8301,-6.8554,-6.8581,-6.8254,-6.8251,-6.8248,0,-6.7568,-6.7707,-6.7832,-6.7866,-6.7934,-6.7992,-6.8023,-6.8074,-6.8124,-6.8191,-6.8223,-6.83,-6.8343,-6.8402,-6.8404,-6.8343,-6.8549,-6.8466,-6.8557,-6.8558,-6.8603,-6.86,-6.8867,-6.863,-6.863,-6.8629,-6.8629,0,-6.7775,-6.7886,-6.7902,-6.7979,-6.8102,-6.81,-6.8221,-6.8246,-6.8292,-6.8372,-6.8344,-6.842,-6.8418,-6.8495,-6.8497,-6.8615,-6.8634,-6.8642,-6.8642,-6.8646,-6.8645,-6.8674,-6.8661,-6.8636,-6.8635,-6.8633,-6.8632,0,-6.7966,-6.7981,-6.8116,-6.8169,-6.8185,-6.8274,-6.8319,-6.8392,-6.8407,-6.8509,-6.8532,-6.8555,-6.8644,-6.8652,-6.8754,-6.8756,-6.8899,-6.8885,-6.8882,-6.8879,-6.8971,-6.8962,-6.9266,-6.9305,-6.9043,-6.9045,-6.9047,0,-6.8097,-6.8182,-6.8246,-6.8299,-6.8333,-6.8418,-6.847,-6.8471,-6.8526,-6.8597,-6.8661,-6.8747,-6.8816,-6.8959,-6.8984,-6.9062,-6.9049,-6.915,-6.906,-6.9062,-6.9051,-6.9046,-6.9055,-6.9167,-6.917,-6.9173,-6.9175,0,-6.8327,-6.8331,-6.8409,-6.849,-6.8553,-6.8616,-6.8675,-6.8719,-6.8726,-6.8789,-6.8881,-6.8935,-6.904,-6.9126,-6.9203,-6.9232,-6.9205,-6.9203,-6.9228,-6.9233,-6.9228,-6.9232,-6.8929,-6.9196,-6.9194,-6.9192,-6.9191,-6.919,-6.8493,-6.8567,-6.8624,-6.8711,-6.8756,-6.8812,-6.8884,-6.8908,-6.8985,-6.9073,-6.9068,-6.9169,-6.9222,-6.9323,-6.9358,-6.9436,-6.9402,-6.9438,-6.9448,-6.9457,-6.9467,-6.9215,-6.9449,-6.9449,-6.9448,-6.9448,-6.9447,0,-6.8722,-6.8758,-6.8838,-6.8923,-6.8991,-6.8962,-6.9025,-6.9084,-6.9174,-6.9227,-6.9297,-6.9402,-6.9485,-6.9516,-6.9597,-6.9653,-6.9643,-6.9675,-6.9671,-6.9678,-6.9492,-6.9462,-6.9682,-6.9682,-6.9682,-6.9682,-6.9682,-6.9682,-6.885,-6.8975,-6.8985,-6.9131,-6.9165,-6.9266,-6.9305,-6.9356,-6.9398,-6.9518,-6.9588,-6.9609,-6.9653,-6.9737,-6.9811,-6.9818,-6.9849,-6.9887,-6.9888,-6.9714,-6.9691,-6.9668,-6.964,-6.9893,-6.9894,-7.0067,-7.0069,-7.007]}]]